Location: Passau
(48.5830°N, 13.4830°E)
Time: 21:27:16
(UTC+02:00)

S-56A Canister/Altair - Pass Details

Date: 21 May 2024
Orbit: 637 x 2489 km, 38.9° (Epoch: 16 June)

Event Time Altitude Azimuth Distance (km) Brightness Sun altitude
Rises 11:53:50 0° 268° (W) 4,670 11.4 58.5°
Reaches altitude 10° 11:57:48 10° 259° (W) 3,353 10.8 58.9°
Maximum altitude 12:04:23 29° 204° (SSW) 1,762 10.2 59.4°
Drops below altitude 10° 12:09:15 10° 145° (SE) 2,425 10.8 59.8°
Sets 12:11:40 0° 133° (SE) 3,196 11.1 59.9°
